Vertical_Velocity
-1 -1 -1 -0 1 -1 0 2 1 -2 -3 -5 -2 0 -2 -3 6 3 4 3 2 1 -0 1 6 -2 4 0 -2 2 -9 -4 -3 -8 -4 1 7 0 2 1 1 1 2 -2
-9 0 -2 0 -0 1 0 2 -3 -4 1 -6 1 -1 -1 0 -3 -8 -5 2 -2 3 7 8 7 3 -3 -10 -4 -2 -5 -1 0 5 3 -2 -0 1 4 4 2 -0 -4 1
-3 -7 2 2 -1 5 -0 2 -2 -2 -1 -2 -1 -3 2 0 2 8 8 1 4 -7 -4 0 2 3 6 5 -1 2 2 -0 3 1 0 2 4 3 1 1 -4 -5 -1 -2
-3 -3 2 -1 0 6 2 -1 1 1 0 -4 -6 -4 0 -1 1 1 3 2 -1 -1 7 1 -3 6 3 2 5 3 3 2 -2 2 8 -4 -5 -4 -2 -2 -3 -0 -0 -1
-13 0 -1 -0 -5 -1 -9 1 -0 1 1 -4 2 -7 -13 1 -1 -1 -1 4 2 -0 -5 -6 -6 4 3 0 -2 2 3 -2 -2 -1 3 -1 -3 1 -1 1 -1 0 3 3
-3 0 -2 -3 -2 1 -1 1 -1 -2 -1 -4 -4 -6 -6 -2 -12 1 -4 1 2 8 4 7 7 1 -0 -0 2 1 -2 5 1 4 2 2 -0 1 -3 -3 -2 1 1 -3
1 0 -2 2 0 -3 -0 -3 -4 -9 -9 -6 -1 0 -19 -4 -1 -5 -6 -2 9 1 4 -0 -7 -2 -2 -8 1 1 3 -0 -0 7 2 1 6 5 6 5 4 1 2 3
-1 0 -1 -2 -3 -2 -1 -5 -6 -4 -2 -4 -3 -2 -11 -6 -1 -4 -2 5 7 3 2 -1 -4 1 1 -3 -4 -2 1 2 2 2 0 4 8 4 3 3 -0 1 1 -2
-1 -1 -3 2 0 -0 -0 -3 -7 -5 -1 -5 -4 -4 -6 0 0 4 -1 -1 5 0 -1 2 5 2 -3 -5 -6 3 2 7 1 1 -1 -0 3 4 3 3 8 3 -1 8
-2 -4 -0 -11 -6 -8 -5 -4 -11 -5 -2 -0 -2 0 -2 1 2 1 3 1 0 -1 0 1 -2 -2 0 0 0 3 7 2 2 0 -0 2 -0 2 3 1 -11 4 -4 -6
-2 -8 -9 -6 -2 -4 -1 -0 0 -7 -4 -4 -2 -7 -1 -1 -1 -1 -1 -2 -4 -4 -4 -3 -1 0 -2 -2 -3 -4 -1 4 1 1 3 3 2 -1 1 -1 4 -1 -13 1
-7 -4 -2 -20 -13 -3 -2 -2 -1 -7 -5 -2 -6 -13 -0 -1 -1 -2 1 -1 0 -3 -4 -3 -2 -3 -5 -5 -6 -7 -2 -0 5 5 3 1 1 -2 2 -2 8 -13 -4 1
-0 -2 -1 -5 -5 -5 0 -1 -1 -1 -3 -1 -7 -12 -1 1 0 2 -2 2 -2 -1 2 -0 4 -2 -2 -2 -5 -3 -1 -1 2 2 1 2 1 4 -0 4 -26 16 4 0
-2 -1 -7 -9 -10 -3 -1 -0 -0 -3 -3 -3 -5 -3 -7 -1 -0 1 -0 1 4 -0 -3 -1 7 -0 9 22 14 1 3 -2 -3 2 3 5 1 -0 -0 -5 -0 6 10 3
-5 -2 0 -1 0 1 -1 1 -1 1 -3 -9 -9 -1 -6 0 -0 3 2 3 4 8 11 10 8 5 -5 -1 5 5 4 -0 7 3 4 -0 1 -1 -6 -2 0 8 -1 1
-0 -2 -1 -1 -1 -0 -1 -0 0 -0 -1 -0 1 -2 -1 4 7 2 3 1 0 -1 -2 1 -0 4 3 3 -3 2 8 4 -0 1 -3 2 1 -1 -5 11 -8 1 9 -3
-3 -2 -2 -1 0 -2 -9 -4 -1 -1 -0 1 0 1 1 -0 0 1 0 1 2 4 2 -3 11 3 -1 -3 5 5 4 11 7 15 14 6 -0 -3 4 -22 -1 11 -1 -7
-1 -1 -2 -2 -3 -7 -25 -0 -2 -2 1 0 -1 1 1 3 8 2 6 2 1 1 0 3 3 -1 8 7 5 6 8 7 6 3 3 1 -1 -7 10 14 7 -27 -3 6
-2 -2 -2 -7 -1 -10 -7 0 -1 -6 2 1 0 1 2 0 1 -3 5 4 3 2 2 5 -2 -1 3 5 8 9 8 8 5 6 3 -3 5 5 -5 -25 -27 0 -16 -1
-2 -3 -9 -0 -3 -5 -10 0 1 -2 -4 2 -3 2 1 -4 -5 -4 2 -0 1 -1 -3 -1 2 0 3 4 5 0 0 2 3 -1 2 -2 -16 -25 -16 -7 -8 -8 6 -1
-2 -2 -4 0 -1 -9 -3 -0 -0 -16 -19 3 -1 2 -1 -2 -1 2 8 10 -3 1 3 6 3 -2 1 6 7 -0 3 -4 -5 -8 -16 -21 -13 -12 -5 0 8 6 1 3
-6 -5 -1 -1 -1 -11 0 0 -14 -11 9 1 1 3 -1 4 1 6 7 1 2 -2 -1 2 -1 -2 -1 1 3 -2 -3 1 -10 -18 -10 4 6 7 0 -2 -2 -1 -1 -3
-6 -12 -11 -13 -15 -5 7 -4 8 1 -2 5 -4 1 3 -1 2 1 1 2 0 2 1 2 -0 0 0 -2 -6 -12 -16 0 5 1 -7 -9 -3 -0 2 2 -1 0 2 2
1 1 -3 -9 -3 4 3 10 1 0 -2 -1 -1 -2 -3 -4 4 -0 2 1 0 0 -1 -1 -3 -3 2 5 4 2 0 -5 -5 1 4 2 -3 -3 -1 0 1 -1 0 1
-7 -4 -2 -0 6 -2 1 3 1 3 -0 -3 -1 -2 -2 1 -1 2 1 1 2 1 1 2 2 2 -1 -4 -6 -5 -3 -3 -1 -1 -3 -3 -1 -2 -3 -1 -1 -1 -0 0
-0 -3 -5 -6 2 -8 7 8 4 -5 -1 1 -1 -1 -1 1 -1 3 0 1 1 1 2 -1 -4 -5 -4 -2 -1 -0 -0 -3 -5 -5 -2 -2 -2 -1 -1 -2 -6 5 -4 4
Height
1501 1505 1508 1500 1494 1492 1495 1502 1501 1490 1486 1494 1495 1495 1497 1497 1500 1503 1506 1509 1513 1515 1519 1523 1526 1528 1531 1535 1537 1540 1545 1550 1553 1556 1558 1561 1561 1561 1562 1564 1564 1565 1567 1567
1506 1512 1500 1494 1492 1493 1499 1504 1499 1487 1478 1488 1492 1493 1491 1495 1495 1499 1503 1507 1511 1515 1518 1522 1526 1527 1527 1531 1534 1538 1544 1548 1550 1553 1556 1557 1558 1559 1560 1561 1561 1563 1564 1566
1510 1505 1499 1495 1497 1497 1498 1502 1496 1496 1484 1482 1492 1498 1497 1494 1494 1496 1499 1502 1507 1510 1515 1519 1523 1525 1527 1530 1532 1536 1540 1545 1547 1551 1553 1555 1556 1556 1557 1558 1559 1561 1563 1562
1501 1499 1500 1500 1497 1493 1500 1488 1490 1491 1496 1509 1489 1523 1500 1497 1494 1494 1497 1499 1502 1507 1511 1515 1520 1523 1526 1529 1533 1535 1538 1541 1544 1546 1549 1550 1551 1552 1554 1556 1557 1559 1560 1560
1501 1497 1501 1503 1494 1489 1495 1486 1489 1490 1495 1499 1498 1518 1509 1492 1499 1495 1494 1494 1496 1500 1504 1509 1516 1520 1522 1526 1530 1533 1537 1539 1541 1542 1545 1547 1549 1551 1552 1553 1554 1556 1557 1557
1494 1493 1496 1490 1486 1485 1485 1485 1488 1495 1503 1520 1496 1506 1511 1496 1486 1488 1489 1493 1493 1497 1499 1505 1512 1516 1520 1524 1528 1530 1533 1536 1538 1540 1543 1545 1546 1546 1547 1550 1552 1553 1554 1554
1493 1490 1488 1491 1494 1488 1490 1497 1524 1533 1538 1533 1500 1506 1498 1481 1479 1480 1484 1488 1491 1494 1498 1504 1508 1513 1517 1519 1523 1526 1530 1533 1535 1538 1540 1542 1543 1544 1545 1546 1547 1548 1549 1549
1501 1513 1495 1488 1496 1500 1490 1498 1524 1537 1543 1531 1500 1504 1488 1467 1475 1478 1480 1486 1491 1493 1498 1501 1505 1509 1513 1516 1520 1523 1526 1529 1532 1535 1537 1539 1540 1540 1541 1542 1543 1544 1544 1544
1498 1502 1494 1488 1489 1489 1488 1498 1487 1514 1526 1539 1514 1488 1479 1474 1476 1478 1482 1487 1491 1493 1497 1500 1503 1506 1510 1514 1519 1522 1524 1527 1529 1531 1533 1535 1537 1538 1539 1540 1541 1541 1543 1541
1491 1504 1496 1486 1489 1481 1483 1485 1506 1509 1526 1527 1505 1496 1499 1485 1482 1483 1486 1487 1490 1494 1497 1500 1502 1506 1510 1514 1518 1522 1525 1526 1528 1529 1531 1532 1533 1535 1537 1538 1539 1541 1537 1542
1483 1492 1504 1499 1497 1491 1489 1492 1489 1494 1507 1525 1537 1514 1479 1481 1480 1482 1483 1483 1487 1491 1495 1499 1502 1504 1507 1512 1516 1520 1524 1525 1526 1527 1529 1530 1531 1533 1535 1537 1535 1536 1536 1537
1476 1492 1512 1497 1482 1475 1476 1484 1490 1521 1508 1511 1529 1518 1478 1477 1477 1477 1479 1481 1483 1487 1490 1494 1498 1500 1503 1506 1510 1514 1519 1522 1523 1524 1525 1526 1528 1531 1532 1533 1534 1532 1533 1532
1470 1482 1510 1499 1487 1477 1479 1476 1478 1484 1501 1506 1534 1517 1477 1475 1475 1476 1476 1478 1481 1483 1487 1489 1492 1494 1497 1501 1504 1507 1512 1516 1518 1520 1521 1523 1526 1528 1529 1530 1531 1532 1531 1530
1465 1474 1488 1507 1491 1480 1484 1480 1476 1484 1518 1507 1508 1495 1481 1478 1475 1474 1474 1476 1477 1479 1481 1483 1485 1487 1489 1492 1497 1502 1505 1509 1513 1515 1517 1520 1523 1525 1527 1529 1529 1531 1529 1527
1468 1482 1476 1477 1476 1475 1475 1478 1477 1480 1484 1501 1493 1490 1478 1476 1475 1473 1474 1476 1478 1481 1482 1482 1481 1485 1489 1492 1496 1500 1504 1506 1508 1511 1514 1517 1520 1521 1522 1525 1527 1526 1525 1523
1467 1482 1476 1482 1477 1479 1482 1476 1476 1476 1473 1475 1478 1482 1471 1472 1472 1474 1476 1477 1478 1480 1481 1481 1481 1483 1487 1489 1493 1496 1499 1501 1504 1506 1509 1512 1513 1516 1521 1522 1522 1522 1521 1520
1470 1477 1493 1494 1490 1487 1502 1480 1476 1474 1471 1473 1483 1480 1472 1474 1476 1477 1477 1477 1479 1480 1481 1483 1485 1485 1486 1487 1489 1493 1496 1497 1501 1503 1505 1507 1509 1512 1514 1516 1520 1518 1518 1516
1470 1476 1494 1507 1504 1518 1480 1465 1465 1472 1475 1474 1476 1477 1476 1477 1478 1477 1478 1478 1479 1480 1481 1483 1484 1486 1487 1487 1489 1491 1494 1497 1499 1502 1504 1506 1507 1509 1512 1513 1512 1513 1514 1511
1463 1480 1498 1508 1511 1490 1474 1468 1467 1472 1484 1476 1477 1477 1477 1477 1477 1481 1482 1481 1482 1482 1483 1484 1484 1484 1485 1486 1487 1489 1492 1495 1497 1498 1499 1501 1505 1506 1508 1509 1509 1507 1505 1504
1467 1471 1492 1504 1510 1516 1481 1467 1465 1466 1493 1478 1477 1478 1478 1478 1491 1487 1484 1483 1482 1482 1483 1483 1483 1482 1483 1485 1485 1485 1488 1492 1494 1496 1499 1498 1501 1505 1505 1504 1501 1499 1499 1496
1489 1489 1499 1511 1513 1494 1468 1465 1466 1489 1496 1477 1478 1479 1480 1483 1486 1485 1485 1483 1482 1483 1484 1484 1483 1482 1485 1487 1487 1488 1489 1491 1494 1494 1497 1500 1500 1500 1499 1496 1496 1495 1493 1491
1480 1492 1503 1500 1506 1499 1463 1465 1476 1477 1475 1477 1478 1480 1482 1483 1484 1484 1484 1483 1482 1482 1484 1485 1484 1486 1488 1489 1490 1490 1492 1494 1495 1497 1497 1496 1495 1494 1494 1493 1491 1489 1487 1485
1473 1467 1477 1477 1480 1463 1462 1465 1469 1471 1474 1477 1478 1479 1480 1482 1483 1483 1483 1482 1483 1484 1484 1486 1486 1488 1489 1490 1492 1494 1495 1495 1494 1494 1494 1494 1494 1491 1490 1487 1486 1484 1482 1479
1450 1451 1461 1464 1461 1461 1465 1466 1467 1470 1472 1475 1477 1478 1479 1481 1482 1482 1482 1482 1483 1485 1487 1489 1491 1492 1493 1493 1492 1492 1492 1492 1492 1493 1492 1491 1489 1487 1485 1483 1481 1479 1477 1474
1450 1450 1455 1460 1465 1464 1469 1469 1470 1472 1472 1475 1477 1479 1480 1480 1482 1483 1484 1487 1488 1490 1491 1491 1491 1491 1492 1493 1493 1493 1493 1492 1491 1490 1489 1487 1486 1483 1480 1478 1475 1473 1471 1469
1445 1449 1460 1467 1459 1459 1471 1471 1470 1471 1474 1477 1478 1480 1482 1484 1485 1487 1488 1489 1490 1490 1492 1493 1494 1494 1495 1495 1494 1493 1491 1489 1487 1485 1484 1483 1480 1477 1474 1471 1468 1467 1464 1462